This demonstration page uses our WeatherBlox Daily Observations layout. Learn more.

Left ArrowRight Arrow

39.01783, -85.05884

Hourly Observations for November 16, 2021

Temp ( °F °C ) Dew Point ( °F °C ) Humidity (%) Winds ( mph kmh ) Pressure ( in mb ) Visibility ( mi km ) Precip ( " mm )
12:52 am 00:52 Mostly Cloudy 37 2.8 30 -1.1 76 76 SE 6 9 30.09 1019 10 16 N/A
1:52 am 01:52 Mostly Clear 36 2.2 31 -0.6 82 82 ESE 7 11 30.09 1019 10 16 N/A
2:52 am 02:52 Mostly Clear 35 1.7 30 -1.1 82 82 SE 6 9 30.08 1019 10 16 N/A
3:52 am 03:52 Mostly Clear 35 1.7 30 -1.1 82 82 SE 8 13 30.08 1019 10 16 N/A
4:52 am 04:52 Mostly Clear 35 1.7 30 -1.1 82 82 ESE 6 9 30.08 1019 10 16 N/A
5:52 am 05:52 Mostly Cloudy 35 1.7 29 -1.7 78 78 N N/A 30.09 1019 10 16 N/A
6:52 am 06:52 Mostly Cloudy 35 1.7 29 -1.7 78 78 E 3 6 30.09 1019 10 16 N/A
7:52 am 07:52 Mostly Cloudy 35 1.7 29 -1.7 78 78 E 6 9 30.11 1020 10 16 N/A
8:52 am 08:52 Cloudy 39 3.9 32 undefined 76 76 SE 5 7 30.11 1020 10 16 N/A
9:52 am 09:52 Mostly Cloudy 42 5.6 32 undefined 68 68 SE 6 9 30.12 1020 10 16 N/A
10:52 am 10:52 Mostly Cloudy 47 8.3 34 1.1 61 61 VRB 5 7 30.12 1020 10 16 N/A
11:52 am 11:52 Mostly Cloudy 51 10.6 35 1.7 54 54 ESE 3 6 30.10 1019 10 16 N/A
12:52 pm 12:52 Mostly Cloudy 54 12.2 37 2.8 53 53 SE 8 13 30.07 1018 10 16 N/A
1:52 pm 13:52 Mostly Cloudy 55 12.8 38 3.3 53 53 ESE 7 11 30.05 1018 10 16 N/A
2:52 pm 14:52 Mostly Cloudy 56 13.3 41 5 57 57 SSE 9 15 30.04 1017 10 16 N/A
3:52 pm 15:52 Partly Cloudy 57 13.9 40 4.4 53 53 SE 6 9 30.04 1017 10 16 N/A
4:52 pm 16:52 Partly Cloudy 55 12.8 41 5 59 59 ESE 7 11 30.04 1017 10 16 N/A
5:52 pm 17:52 Mostly Cloudy 52 11.1 40 4.4 64 64 ESE 6 9 30.03 1017 10 16 N/A
6:52 pm 18:52 Mostly Cloudy 50 10 40 4.4 68 68 SE 6 9 30.03 1017 10 16 N/A
7:52 pm 19:52 Mostly Cloudy 50 10 41 5 71 71 SSE 5 7 30.03 1017 10 16 N/A
8:52 pm 20:52 Mostly Cloudy 51 10.6 42 5.6 71 71 S 7 11 30.02 1017 10 16 N/A
9:52 pm 21:52 Cloudy 53 11.7 47 8.3 80 80 S 13 20 30.01 1016 10 16 N/A
10:52 pm 22:52 Cloudy 55 12.8 51 10.6 87 87 S 12 19 30.01 1016 8 13 N/A
11:52 pm 23:52 Cloudy 55 12.8 51 10.6 87 87 S 10 17 29.99 1016 7 11 N/A

Powered by AerisWeather